Year,Month,Day,Hour,Minute,Value (Times are PST for windspeed in km/hr)
2012,03,13,00,00,2.90
2012,03,13,00,01,0.90
2012,03,13,00,02,2.80
2012,03,13,00,03,2.80
2012,03,13,00,04,1.80
2012,03,13,00,05,0.40
2012,03,13,00,06,4.60
2012,03,13,00,07,3.70
2012,03,13,00,08,3.20
2012,03,13,00,09,5.90
2012,03,13,00,10,7.20
2012,03,13,00,11,4.40
2012,03,13,00,12,1.40
2012,03,13,00,13,1.90
2012,03,13,00,14,3.00
2012,03,13,00,15,5.80
2012,03,13,00,16,3.60
2012,03,13,00,17,3.10
2012,03,13,00,18,3.00
2012,03,13,00,19,1.50
2012,03,13,00,20,7.70
2012,03,13,00,21,5.30
2012,03,13,00,22,2.70
2012,03,13,00,23,6.30
2012,03,13,00,24,8.50
2012,03,13,00,25,7.60
2012,03,13,00,26,4.20
2012,03,13,00,27,2.20
2012,03,13,00,28,1.20
2012,03,13,00,29,1.10
2012,03,13,00,30,4.40
2012,03,13,00,31,2.10
2012,03,13,00,32,4.70
2012,03,13,00,33,4.70
2012,03,13,00,34,2.90
2012,03,13,00,35,1.10
2012,03,13,00,36,0.50
2012,03,13,00,37,1.70
2012,03,13,00,38,4.10
2012,03,13,00,39,2.80
2012,03,13,00,40,2.40
2012,03,13,00,41,2.90
2012,03,13,00,42,2.90
2012,03,13,00,43,4.70
2012,03,13,00,44,2.00
2012,03,13,00,45,7.10
2012,03,13,00,46,4.90
2012,03,13,00,47,4.50
2012,03,13,00,48,4.80
2012,03,13,00,49,1.40
2012,03,13,00,50,4.10
2012,03,13,00,51,5.40
2012,03,13,00,52,11.30
2012,03,13,00,53,7.50
2012,03,13,00,54,3.80
2012,03,13,00,55,0.70
2012,03,13,00,56,6.10
2012,03,13,00,57,8.60
2012,03,13,00,58,10.70
2012,03,13,00,59,9.80
2012,03,13,01,00,7.20
2012,03,13,01,01,6.90
2012,03,13,01,02,8.10
2012,03,13,01,03,5.00
2012,03,13,01,04,7.00
2012,03,13,01,05,9.60
2012,03,13,01,06,13.50
2012,03,13,01,07,10.30
2012,03,13,01,08,7.10
2012,03,13,01,09,2.60
2012,03,13,01,10,4.20
2012,03,13,01,11,4.80
2012,03,13,01,12,4.50
2012,03,13,01,13,1.80
2012,03,13,01,14,2.30
2012,03,13,01,15,3.50
2012,03,13,01,16,1.10
2012,03,13,01,17,0.90
2012,03,13,01,18,1.10
2012,03,13,01,19,4.30
2012,03,13,01,20,3.50
2012,03,13,01,21,2.40
2012,03,13,01,22,0.40
2012,03,13,01,23,1.20
2012,03,13,01,24,4.00
2012,03,13,01,25,2.70
2012,03,13,01,26,3.50
2012,03,13,01,27,1.20
2012,03,13,01,28,8.80
2012,03,13,01,29,2.60
2012,03,13,01,30,2.20
2012,03,13,01,31,1.50
2012,03,13,01,32,4.40
2012,03,13,01,33,4.90
2012,03,13,01,34,7.40
2012,03,13,01,35,6.10
2012,03,13,01,36,3.50
2012,03,13,01,37,4.80
2012,03,13,01,38,1.70
2012,03,13,01,39,4.00
2012,03,13,01,40,4.30
2012,03,13,01,41,6.10
2012,03,13,01,42,8.60
2012,03,13,01,43,10.20
2012,03,13,01,44,8.80
2012,03,13,01,45,4.40
2012,03,13,01,46,2.90
2012,03,13,01,47,2.30
2012,03,13,01,48,1.50
2012,03,13,01,49,6.40
2012,03,13,01,50,1.50
2012,03,13,01,51,5.50
2012,03,13,01,52,4.10
2012,03,13,01,53,9.00
2012,03,13,01,54,8.30
2012,03,13,01,55,5.10
2012,03,13,01,56,5.80
2012,03,13,01,57,6.30
2012,03,13,01,58,6.70
2012,03,13,01,59,10.40
2012,03,13,02,00,11.10
2012,03,13,02,01,7.20
2012,03,13,02,02,9.70
2012,03,13,02,03,5.60
2012,03,13,02,04,2.90
2012,03,13,02,05,4.50
2012,03,13,02,06,3.20
2012,03,13,02,07,1.90
2012,03,13,02,08,8.30
2012,03,13,02,09,6.40
2012,03,13,02,10,1.80
2012,03,13,02,11,5.90
2012,03,13,02,12,4.40
2012,03,13,02,13,8.80
2012,03,13,02,14,4.20
2012,03,13,02,15,5.60
2012,03,13,02,16,3.60
2012,03,13,02,17,2.60
2012,03,13,02,18,6.10
2012,03,13,02,19,8.40
2012,03,13,02,20,3.60
2012,03,13,02,21,3.40
2012,03,13,02,22,2.40
2012,03,13,02,23,3.20
2012,03,13,02,24,1.90
2012,03,13,02,25,5.70
2012,03,13,02,26,9.60
2012,03,13,02,27,5.30
2012,03,13,02,28,1.90
2012,03,13,02,29,5.50
2012,03,13,02,30,5.70
2012,03,13,02,31,7.50
2012,03,13,02,32,4.00
2012,03,13,02,33,5.30
2012,03,13,02,34,2.10
2012,03,13,02,35,5.60
2012,03,13,02,36,3.40
2012,03,13,02,37,3.80
2012,03,13,02,38,1.80
2012,03,13,02,39,8.00
2012,03,13,02,40,6.50
2012,03,13,02,41,10.40
2012,03,13,02,42,5.90
2012,03,13,02,43,0.50
2012,03,13,02,44,3.50
2012,03,13,02,45,2.60
2012,03,13,02,46,1.10
2012,03,13,02,47,0.90
2012,03,13,02,48,1.90
2012,03,13,02,49,9.80
2012,03,13,02,50,9.30
2012,03,13,02,51,7.00
2012,03,13,02,52,8.70
2012,03,13,02,53,3.60
2012,03,13,02,54,5.10
2012,03,13,02,55,2.70
2012,03,13,02,56,3.80
2012,03,13,02,57,3.90
2012,03,13,02,58,3.90
2012,03,13,02,59,1.50
2012,03,13,03,00,2.80
2012,03,13,03,01,5.30
2012,03,13,03,02,2.50
2012,03,13,03,03,6.20
2012,03,13,03,04,4.70
2012,03,13,03,05,1.80
2012,03,13,03,06,2.10
2012,03,13,03,07,3.70
2012,03,13,03,08,2.10
2012,03,13,03,09,7.20
2012,03,13,03,10,1.20
2012,03,13,03,11,2.40
2012,03,13,03,12,5.80
2012,03,13,03,13,13.40
2012,03,13,03,14,8.50
2012,03,13,03,15,3.80
2012,03,13,03,16,3.90
2012,03,13,03,17,3.10
2012,03,13,03,18,4.90
2012,03,13,03,19,8.50
2012,03,13,03,20,8.50
2012,03,13,03,21,6.80
2012,03,13,03,22,5.30
2012,03,13,03,23,7.30
2012,03,13,03,24,2.60
2012,03,13,03,25,2.50
2012,03,13,03,26,2.80
2012,03,13,03,27,2.00
2012,03,13,03,28,6.80
2012,03,13,03,29,5.80
2012,03,13,03,30,5.30
2012,03,13,03,31,6.40
2012,03,13,03,32,6.70
2012,03,13,03,33,4.80
2012,03,13,03,34,3.60
2012,03,13,03,35,3.20
2012,03,13,03,36,1.70
2012,03,13,03,37,2.40
2012,03,13,03,38,2.00
2012,03,13,03,39,3.60
2012,03,13,03,40,3.40
2012,03,13,03,41,0.10
2012,03,13,03,42,1.60
2012,03,13,03,43,5.90
2012,03,13,03,44,2.80
2012,03,13,03,45,3.20
2012,03,13,03,46,0.10
2012,03,13,03,47,0.70
2012,03,13,03,48,6.30
2012,03,13,03,49,1.80
2012,03,13,03,50,2.00
2012,03,13,03,51,0.90
2012,03,13,03,52,0.20
2012,03,13,03,53,0.10
2012,03,13,03,54,2.40
2012,03,13,03,55,2.50
2012,03,13,03,56,2.10
2012,03,13,03,57,1.30
2012,03,13,03,58,5.20
2012,03,13,03,59,3.40
2012,03,13,04,00,3.60
2012,03,13,04,01,2.70
2012,03,13,04,02,1.70
2012,03,13,04,03,2.10
2012,03,13,04,04,1.20
2012,03,13,04,05,3.80
2012,03,13,04,06,0.10
2012,03,13,04,07,0.60
2012,03,13,04,08,1.30
2012,03,13,04,09,4.40
2012,03,13,04,10,1.00
2012,03,13,04,11,0.00
2012,03,13,04,12,3.10
2012,03,13,04,13,4.10
2012,03,13,04,14,2.80
2012,03,13,04,15,4.80
2012,03,13,04,16,10.00
2012,03,13,04,17,2.10
2012,03,13,04,18,1.30
2012,03,13,04,19,9.10
2012,03,13,04,20,7.50
2012,03,13,04,21,3.90
2012,03,13,04,22,0.80
2012,03,13,04,23,5.20
2012,03,13,04,24,7.10
2012,03,13,04,25,2.30
2012,03,13,04,26,1.80
2012,03,13,04,27,1.50
2012,03,13,04,28,0.70
2012,03,13,04,29,0.50
2012,03,13,04,30,5.50
2012,03,13,04,31,4.00
2012,03,13,04,32,8.40
2012,03,13,04,33,8.10
2012,03,13,04,34,8.80
2012,03,13,04,35,2.60
2012,03,13,04,36,2.60
2012,03,13,04,37,0.20
2012,03,13,04,38,1.50
2012,03,13,04,39,3.50
2012,03,13,04,40,0.10
2012,03,13,04,41,5.20
2012,03,13,04,42,6.20
2012,03,13,04,43,6.50
2012,03,13,04,44,3.10
2012,03,13,04,45,3.90
2012,03,13,04,46,8.00
2012,03,13,04,47,0.90
2012,03,13,04,48,4.00
2012,03,13,04,49,2.80
2012,03,13,04,50,2.30
2012,03,13,04,51,2.30
2012,03,13,04,52,5.90
2012,03,13,04,53,5.10
2012,03,13,04,54,2.90
2012,03,13,04,55,1.80
2012,03,13,04,56,3.20
2012,03,13,04,57,5.30
2012,03,13,04,58,4.30
2012,03,13,04,59,4.10
2012,03,13,05,00,0.80
2012,03,13,05,01,4.00
2012,03,13,05,02,4.40
2012,03,13,05,03,3.90
2012,03,13,05,04,3.00
2012,03,13,05,05,4.20
2012,03,13,05,06,3.40
2012,03,13,05,07,5.30
2012,03,13,05,08,6.50
2012,03,13,05,09,7.20
2012,03,13,05,10,3.60
2012,03,13,05,11,2.80
2012,03,13,05,12,10.40
2012,03,13,05,13,5.70
2012,03,13,05,14,2.20
2012,03,13,05,15,1.90
2012,03,13,05,16,3.20
2012,03,13,05,17,2.20
2012,03,13,05,18,4.00
2012,03,13,05,19,2.20
2012,03,13,05,20,2.40
2012,03,13,05,21,7.70
2012,03,13,05,22,3.10
2012,03,13,05,23,0.80
2012,03,13,05,24,0.10
2012,03,13,05,25,0.00
2012,03,13,05,26,0.70
2012,03,13,05,27,1.70
2012,03,13,05,28,2.20
2012,03,13,05,29,2.70
2012,03,13,05,30,1.00
2012,03,13,05,31,0.00
2012,03,13,05,32,0.00
2012,03,13,05,33,0.00
2012,03,13,05,34,0.00
2012,03,13,05,35,0.00
2012,03,13,05,36,0.00
2012,03,13,05,37,0.00
2012,03,13,05,38,0.20
2012,03,13,05,39,0.00
2012,03,13,05,40,0.40
2012,03,13,05,41,0.10
2012,03,13,05,42,0.10
2012,03,13,05,43,0.20
2012,03,13,05,44,0.00
2012,03,13,05,45,0.00
2012,03,13,05,46,0.00
2012,03,13,05,47,0.00
2012,03,13,05,48,0.00
2012,03,13,05,49,0.00
2012,03,13,05,50,0.00
2012,03,13,05,51,0.00
2012,03,13,05,52,0.00
2012,03,13,05,53,0.00
2012,03,13,05,54,0.00
2012,03,13,05,55,0.00
2012,03,13,05,56,0.00
2012,03,13,05,57,0.00
2012,03,13,05,58,0.00
2012,03,13,05,59,0.00
2012,03,13,06,00,0.00
2012,03,13,06,01,0.00
2012,03,13,06,02,0.00
2012,03,13,06,03,1.30
2012,03,13,06,04,2.80
2012,03,13,06,05,1.40
2012,03,13,06,06,0.00
2012,03,13,06,07,0.00
2012,03,13,06,08,0.00
2012,03,13,06,09,0.00
2012,03,13,06,10,2.10
2012,03,13,06,11,0.20
2012,03,13,06,12,0.00
2012,03,13,06,13,0.00
2012,03,13,06,14,0.00
2012,03,13,06,15,0.90
2012,03,13,06,16,0.00
2012,03,13,06,17,0.00
2012,03,13,06,18,2.40
2012,03,13,06,19,2.50
2012,03,13,06,20,1.20
2012,03,13,06,21,0.80
2012,03,13,06,22,0.80
2012,03,13,06,23,0.10
2012,03,13,06,24,0.00
2012,03,13,06,25,0.00
2012,03,13,06,26,0.00
2012,03,13,06,27,0.00
2012,03,13,06,28,0.00
2012,03,13,06,29,0.00
2012,03,13,06,30,0.00
2012,03,13,06,31,0.00
2012,03,13,06,32,0.10
2012,03,13,06,33,0.00
2012,03,13,06,34,1.50
2012,03,13,06,35,1.90
2012,03,13,06,36,0.70
2012,03,13,06,37,1.00
2012,03,13,06,38,2.20
2012,03,13,06,39,0.70
2012,03,13,06,40,0.00
2012,03,13,06,41,0.00
2012,03,13,06,42,0.00
2012,03,13,06,43,0.10
2012,03,13,06,44,0.00
2012,03,13,06,45,0.00
2012,03,13,06,46,0.30
2012,03,13,06,47,0.00
2012,03,13,06,48,0.00
2012,03,13,06,49,0.00
2012,03,13,06,50,0.00
2012,03,13,06,51,0.10
2012,03,13,06,52,0.10
2012,03,13,06,53,0.00
2012,03,13,06,54,0.00
2012,03,13,06,55,0.00
2012,03,13,06,56,0.00
2012,03,13,06,57,0.10
2012,03,13,06,58,4.90
2012,03,13,06,59,2.60
2012,03,13,07,00,0.00
2012,03,13,07,01,0.20
2012,03,13,07,02,0.00
2012,03,13,07,03,0.10
2012,03,13,07,04,2.20
2012,03,13,07,05,1.90
2012,03,13,07,06,0.10
2012,03,13,07,07,0.10
2012,03,13,07,08,1.20
2012,03,13,07,09,0.00
2012,03,13,07,10,0.00
2012,03,13,07,11,2.00
2012,03,13,07,12,1.40
2012,03,13,07,13,0.00
2012,03,13,07,14,1.50
2012,03,13,07,15,0.90
2012,03,13,07,16,0.40
2012,03,13,07,17,0.40
2012,03,13,07,18,3.00
2012,03,13,07,19,3.70
2012,03,13,07,20,0.10
2012,03,13,07,21,0.50
2012,03,13,07,22,4.10
2012,03,13,07,23,2.50
2012,03,13,07,24,0.20
2012,03,13,07,25,0.10
2012,03,13,07,26,0.00
2012,03,13,07,27,1.00
2012,03,13,07,28,2.90
2012,03,13,07,29,1.40
2012,03,13,07,30,0.50
2012,03,13,07,31,0.90
2012,03,13,07,32,0.70
2012,03,13,07,33,0.10
2012,03,13,07,34,0.00
2012,03,13,07,35,0.40
2012,03,13,07,36,1.00
2012,03,13,07,37,0.00
2012,03,13,07,38,0.00
2012,03,13,07,39,0.00
2012,03,13,07,40,0.10
2012,03,13,07,41,0.00
2012,03,13,07,42,0.10
2012,03,13,07,43,0.10
2012,03,13,07,44,0.00
2012,03,13,07,45,0.20
2012,03,13,07,46,0.00
2012,03,13,07,47,0.00
2012,03,13,07,48,0.20
2012,03,13,07,49,2.10
2012,03,13,07,50,0.80
2012,03,13,07,51,0.00
2012,03,13,07,52,0.10
2012,03,13,07,53,0.00
2012,03,13,07,54,3.10
2012,03,13,07,55,0.00
2012,03,13,07,56,0.10
2012,03,13,07,57,0.30
2012,03,13,07,58,0.20
2012,03,13,07,59,0.00
2012,03,13,08,00,0.00
2012,03,13,08,01,0.00
2012,03,13,08,02,0.00
2012,03,13,08,03,0.10
2012,03,13,08,04,0.00
2012,03,13,08,05,1.10
2012,03,13,08,06,0.00
2012,03,13,08,07,0.10
2012,03,13,08,08,0.40
2012,03,13,08,09,0.10
2012,03,13,08,10,0.00
2012,03,13,08,11,2.20
2012,03,13,08,12,0.60
2012,03,13,08,13,7.00
2012,03,13,08,14,5.40
2012,03,13,08,15,3.70
2012,03,13,08,16,0.80
2012,03,13,08,17,0.40
2012,03,13,08,18,2.70
2012,03,13,08,19,1.90
2012,03,13,08,20,6.70
2012,03,13,08,21,2.10
2012,03,13,08,22,4.80
2012,03,13,08,23,5.60
2012,03,13,08,24,1.80
2012,03,13,08,25,1.20
2012,03,13,08,26,2.40
2012,03,13,08,27,1.30
2012,03,13,08,28,0.00
2012,03,13,08,29,0.10
2012,03,13,08,30,0.00
2012,03,13,08,31,6.80
2012,03,13,08,32,4.20
2012,03,13,08,33,0.00
2012,03,13,08,34,1.90
2012,03,13,08,35,0.70
2012,03,13,08,36,1.10
2012,03,13,08,37,0.80
2012,03,13,08,38,1.70
2012,03,13,08,39,0.20
2012,03,13,08,40,0.90
2012,03,13,08,41,1.80
2012,03,13,08,42,0.40
2012,03,13,08,43,0.30
2012,03,13,08,44,0.00
2012,03,13,08,45,0.00
2012,03,13,08,46,0.00
2012,03,13,08,47,0.50
2012,03,13,08,48,0.00
2012,03,13,08,49,0.80
2012,03,13,08,50,1.20
2012,03,13,08,51,0.00
2012,03,13,08,52,1.20
2012,03,13,08,53,0.40
2012,03,13,08,54,0.00
2012,03,13,08,55,0.00
2012,03,13,08,56,0.40
2012,03,13,08,57,0.00
2012,03,13,08,58,0.00
2012,03,13,08,59,0.40
2012,03,13,09,00,3.40
2012,03,13,09,01,0.10
2012,03,13,09,02,0.10
2012,03,13,09,03,0.60
2012,03,13,09,04,0.50
2012,03,13,09,05,2.10
2012,03,13,09,06,1.10
2012,03,13,09,07,0.00
2012,03,13,09,08,0.00
2012,03,13,09,09,0.00
2012,03,13,09,10,0.20
2012,03,13,09,11,0.10
2012,03,13,09,12,0.00
2012,03,13,09,13,0.10
2012,03,13,09,14,0.60
2012,03,13,09,15,1.70
2012,03,13,09,16,0.10
2012,03,13,09,17,0.00
2012,03,13,09,18,0.00
2012,03,13,09,19,0.00
2012,03,13,09,20,0.10
2012,03,13,09,21,0.00
2012,03,13,09,22,0.00
2012,03,13,09,23,0.00
2012,03,13,09,24,0.00
2012,03,13,09,25,0.10
2012,03,13,09,26,2.80
2012,03,13,09,27,0.20
2012,03,13,09,28,0.00
2012,03,13,09,29,0.10
2012,03,13,09,30,4.30
2012,03,13,09,31,4.10
2012,03,13,09,32,5.70
2012,03,13,09,33,2.70
2012,03,13,09,34,1.80
2012,03,13,09,35,0.00
2012,03,13,09,36,1.90
2012,03,13,09,37,1.20
2012,03,13,09,38,1.80
2012,03,13,09,39,1.30
2012,03,13,09,40,2.40
2012,03,13,09,41,3.20
2012,03,13,09,42,0.70
2012,03,13,09,43,3.50
2012,03,13,09,44,4.80
2012,03,13,09,45,1.40
2012,03,13,09,46,3.80
2012,03,13,09,47,7.60
2012,03,13,09,48,2.10
2012,03,13,09,49,5.80
2012,03,13,09,50,5.00
2012,03,13,09,51,2.40
2012,03,13,09,52,0.20
2012,03,13,09,53,2.70
2012,03,13,09,54,1.00
2012,03,13,09,55,0.00
2012,03,13,09,56,0.80
2012,03,13,09,57,0.10
2012,03,13,09,58,1.60
2012,03,13,09,59,3.10
2012,03,13,10,00,2.30
2012,03,13,10,01,1.20
2012,03,13,10,02,0.50
2012,03,13,10,03,1.00
2012,03,13,10,04,0.00
2012,03,13,10,05,0.20
2012,03,13,10,06,0.50
2012,03,13,10,07,0.10
2012,03,13,10,08,0.00
2012,03,13,10,09,0.00
2012,03,13,10,10,0.00
2012,03,13,10,11,0.00
2012,03,13,10,12,0.00
2012,03,13,10,13,0.00
2012,03,13,10,14,0.50
2012,03,13,10,15,2.30
2012,03,13,10,16,2.50
2012,03,13,10,17,2.90
2012,03,13,10,18,3.40
2012,03,13,10,19,0.00
2012,03,13,10,20,0.00
2012,03,13,10,21,0.00
2012,03,13,10,22,3.00
2012,03,13,10,23,1.20
2012,03,13,10,24,0.00
2012,03,13,10,25,0.00
2012,03,13,10,26,2.20
2012,03,13,10,27,2.40
2012,03,13,10,28,2.30
2012,03,13,10,29,0.90
2012,03,13,10,30,0.60
2012,03,13,10,31,0.20
2012,03,13,10,32,0.20
2012,03,13,10,33,0.00
2012,03,13,10,34,0.80
2012,03,13,10,35,0.70
2012,03,13,10,36,1.70
2012,03,13,10,37,1.20
2012,03,13,10,38,1.50
2012,03,13,10,39,3.60
2012,03,13,10,40,2.30
2012,03,13,10,41,3.40
2012,03,13,10,42,3.20
2012,03,13,10,43,0.60
2012,03,13,10,44,0.90
2012,03,13,10,45,0.00
2012,03,13,10,46,1.50
2012,03,13,10,47,0.00
2012,03,13,10,48,0.10
2012,03,13,10,49,0.00
2012,03,13,10,50,0.00
2012,03,13,10,51,0.00
2012,03,13,10,52,1.30
2012,03,13,10,53,0.30
2012,03,13,10,54,1.40
2012,03,13,10,55,0.40
2012,03,13,10,56,0.10
2012,03,13,10,57,0.00
2012,03,13,10,58,0.00
2012,03,13,10,59,0.00
2012,03,13,11,00,0.40
2012,03,13,11,01,0.00
2012,03,13,11,02,0.00
2012,03,13,11,03,0.00
2012,03,13,11,04,0.00
2012,03,13,11,05,0.00
2012,03,13,11,06,0.00
2012,03,13,11,07,2.30
2012,03,13,11,08,3.60
2012,03,13,11,09,0.80
2012,03,13,11,10,0.60
2012,03,13,11,11,0.10
2012,03,13,11,12,0.00
2012,03,13,11,13,3.20
2012,03,13,11,14,1.50
2012,03,13,11,15,0.10
2012,03,13,11,16,0.10
2012,03,13,11,17,2.30
2012,03,13,11,18,3.60
2012,03,13,11,19,0.00
2012,03,13,11,20,0.00
2012,03,13,11,21,0.00
2012,03,13,11,22,6.00
2012,03,13,11,23,1.80
2012,03,13,11,24,5.00
2012,03,13,11,25,4.10
2012,03,13,11,26,3.80
2012,03,13,11,27,5.10
2012,03,13,11,28,5.30
2012,03,13,11,29,4.00
2012,03,13,11,30,2.00
2012,03,13,11,31,5.80
2012,03,13,11,32,7.50
2012,03,13,11,33,2.80
2012,03,13,11,34,2.90
2012,03,13,11,35,5.90
2012,03,13,11,36,2.30
2012,03,13,11,37,3.40
2012,03,13,11,38,2.00
2012,03,13,11,39,2.90
2012,03,13,11,40,1.40
2012,03,13,11,41,4.10
2012,03,13,11,42,3.60
2012,03,13,11,43,7.80
2012,03,13,11,44,5.50
2012,03,13,11,45,5.20
2012,03,13,11,46,0.90
2012,03,13,11,47,1.50
2012,03,13,11,48,1.00
2012,03,13,11,49,1.20
2012,03,13,11,50,3.00
2012,03,13,11,51,0.00
2012,03,13,11,52,2.30
2012,03,13,11,53,3.40
2012,03,13,11,54,1.10
2012,03,13,11,55,1.80
2012,03,13,11,56,3.30
2012,03,13,11,57,0.80
2012,03,13,11,58,4.20
2012,03,13,11,59,6.50
2012,03,13,12,00,5.90
2012,03,13,12,01,2.30
2012,03,13,12,02,1.20
2012,03,13,12,03,5.70
2012,03,13,12,04,7.50
2012,03,13,12,05,4.00
2012,03,13,12,06,2.70
2012,03,13,12,07,7.10
2012,03,13,12,08,3.50
2012,03,13,12,09,1.40
2012,03,13,12,10,2.60
2012,03,13,12,11,4.60
2012,03,13,12,12,3.80
2012,03,13,12,13,5.10
2012,03,13,12,14,4.20
2012,03,13,12,15,4.70
2012,03,13,12,16,0.30
2012,03,13,12,17,0.10
2012,03,13,12,18,2.00
2012,03,13,12,19,2.20
2012,03,13,12,20,2.30
2012,03,13,12,21,1.90
2012,03,13,12,22,1.40
2012,03,13,12,23,4.50
2012,03,13,12,24,5.10
2012,03,13,12,25,2.60
2012,03,13,12,26,7.20
2012,03,13,12,27,3.80
2012,03,13,12,28,1.00
2012,03,13,12,29,4.10
2012,03,13,12,30,3.60
2012,03,13,12,31,6.50
2012,03,13,12,32,6.50
2012,03,13,12,33,3.60
2012,03,13,12,34,2.20
2012,03,13,12,35,4.10
2012,03,13,12,36,5.40
2012,03,13,12,37,10.10
2012,03,13,12,38,6.00
2012,03,13,12,39,5.40
2012,03,13,12,40,5.00
2012,03,13,12,41,8.30
2012,03,13,12,42,7.90
2012,03,13,12,43,6.60
2012,03,13,12,44,5.60
2012,03,13,12,45,6.70
2012,03,13,12,46,6.60
2012,03,13,12,47,8.50
2012,03,13,12,48,5.50
2012,03,13,12,49,3.80
2012,03,13,12,50,5.80
2012,03,13,12,51,6.40
2012,03,13,12,52,7.20
2012,03,13,12,53,7.00
2012,03,13,12,54,3.60
2012,03,13,12,55,9.20
2012,03,13,12,56,7.10
2012,03,13,12,57,6.50
2012,03,13,12,58,6.30
2012,03,13,12,59,7.30
2012,03,13,13,00,6.70
2012,03,13,13,01,6.70
2012,03,13,13,02,6.40
2012,03,13,13,03,1.60
2012,03,13,13,04,9.60
2012,03,13,13,05,8.00
2012,03,13,13,06,6.00
2012,03,13,13,07,2.80
2012,03,13,13,08,4.10
2012,03,13,13,09,6.60
2012,03,13,13,10,6.30
2012,03,13,13,11,4.60
2012,03,13,13,12,4.30
2012,03,13,13,13,6.20
2012,03,13,13,14,7.30
2012,03,13,13,15,6.30
2012,03,13,13,16,4.10
2012,03,13,13,17,1.40
2012,03,13,13,18,2.40
2012,03,13,13,19,2.30
2012,03,13,13,20,2.50
2012,03,13,13,21,4.90
2012,03,13,13,22,4.40
2012,03,13,13,23,4.50
2012,03,13,13,24,7.80
2012,03,13,13,25,5.30
2012,03,13,13,26,4.80
2012,03,13,13,27,9.30
2012,03,13,13,28,10.00
2012,03,13,13,29,5.70
2012,03,13,13,30,3.00
2012,03,13,13,31,2.80
2012,03,13,13,32,0.90
2012,03,13,13,33,4.30
2012,03,13,13,34,4.50
2012,03,13,13,35,1.50
2012,03,13,13,36,4.80
2012,03,13,13,37,5.50
2012,03,13,13,38,6.00
2012,03,13,13,39,8.80
2012,03,13,13,40,4.50
2012,03,13,13,41,8.10
2012,03,13,13,42,6.30
2012,03,13,13,43,1.60
2012,03,13,13,44,1.70
2012,03,13,13,45,3.90
2012,03,13,13,46,3.50
2012,03,13,13,47,4.00
2012,03,13,13,48,7.60
2012,03,13,13,49,7.90
2012,03,13,13,50,5.60
2012,03,13,13,51,1.10
2012,03,13,13,52,1.70
2012,03,13,13,53,1.60
2012,03,13,13,54,2.60
2012,03,13,13,55,5.70
2012,03,13,13,56,8.40
2012,03,13,13,57,5.70
2012,03,13,13,58,5.30
2012,03,13,13,59,8.30
2012,03,13,14,00,10.60
2012,03,13,14,01,4.10
2012,03,13,14,02,9.90
2012,03,13,14,03,5.80
2012,03,13,14,04,8.40
2012,03,13,14,05,7.60
2012,03,13,14,06,5.40
2012,03,13,14,07,10.60
2012,03,13,14,08,5.70
2012,03,13,14,09,8.30
2012,03,13,14,10,4.50
2012,03,13,14,11,4.20
2012,03,13,14,12,6.10
2012,03,13,14,13,5.00
2012,03,13,14,14,7.60
2012,03,13,14,15,10.40
2012,03,13,14,16,6.50
2012,03,13,14,17,8.30
2012,03,13,14,18,6.40
2012,03,13,14,19,10.40
2012,03,13,14,20,10.90
2012,03,13,14,21,4.80
2012,03,13,14,22,12.00
2012,03,13,14,23,8.30
2012,03,13,14,24,7.10
2012,03,13,14,25,1.00
2012,03,13,14,26,3.80
2012,03,13,14,27,2.80
2012,03,13,14,28,6.30
2012,03,13,14,29,6.00
2012,03,13,14,30,3.70
2012,03,13,14,31,8.30
2012,03,13,14,32,6.80
2012,03,13,14,33,9.10
2012,03,13,14,34,12.20
2012,03,13,14,35,6.30
2012,03,13,14,36,4.80
2012,03,13,14,37,13.10
2012,03,13,14,38,6.00
2012,03,13,14,39,6.60
2012,03,13,14,40,8.50
2012,03,13,14,41,10.20
2012,03,13,14,42,9.40
2012,03,13,14,43,9.40
2012,03,13,14,44,3.20
2012,03,13,14,45,4.40
2012,03,13,14,46,9.70
2012,03,13,14,47,3.70
2012,03,13,14,48,7.50
2012,03,13,14,49,13.40
2012,03,13,14,50,7.20
2012,03,13,14,51,4.30
2012,03,13,14,52,8.00
2012,03,13,14,53,11.10
2012,03,13,14,54,5.50
2012,03,13,14,55,6.80
2012,03,13,14,56,6.00
2012,03,13,14,57,9.20
2012,03,13,14,58,7.30
2012,03,13,14,59,11.60
2012,03,13,15,00,10.30
2012,03,13,15,01,11.80
2012,03,13,15,02,9.60
2012,03,13,15,03,6.30
2012,03,13,15,04,14.30
2012,03,13,15,05,12.70
2012,03,13,15,06,8.00
2012,03,13,15,07,12.10
2012,03,13,15,08,19.50
2012,03,13,15,09,19.20
2012,03,13,15,10,14.40
2012,03,13,15,11,15.80
2012,03,13,15,12,13.10
2012,03,13,15,13,18.00
2012,03,13,15,14,10.70
2012,03,13,15,15,14.90
2012,03,13,15,16,18.10
2012,03,13,15,17,14.90
2012,03,13,15,18,15.10
2012,03,13,15,19,8.80
2012,03,13,15,20,9.30
2012,03,13,15,21,7.90
2012,03,13,15,22,11.80
2012,03,13,15,23,13.30
2012,03,13,15,24,9.80
2012,03,13,15,25,17.30
2012,03,13,15,26,10.50
2012,03,13,15,27,11.90
2012,03,13,15,28,9.70
2012,03,13,15,29,10.50
2012,03,13,15,30,13.80
2012,03,13,15,31,15.10
2012,03,13,15,32,14.30
2012,03,13,15,33,5.30
2012,03,13,15,34,9.40
2012,03,13,15,35,2.70
2012,03,13,15,36,4.50
2012,03,13,15,37,1.60
2012,03,13,15,38,11.80
2012,03,13,15,39,7.00
2012,03,13,15,40,12.50
2012,03,13,15,41,5.00
2012,03,13,15,42,0.50
2012,03,13,15,43,4.50
2012,03,13,15,44,3.30
2012,03,13,15,45,5.10
2012,03,13,15,46,8.00
2012,03,13,15,47,3.40
2012,03,13,15,48,1.10
2012,03,13,15,49,3.20
2012,03,13,15,50,5.00
2012,03,13,15,51,4.30
2012,03,13,15,52,6.80
2012,03,13,15,53,7.50
2012,03,13,15,54,3.80
2012,03,13,15,55,11.40
2012,03,13,15,56,10.30
2012,03,13,15,57,7.90
2012,03,13,15,58,10.10
2012,03,13,15,59,7.70
2012,03,13,16,00,9.00
2012,03,13,16,01,6.10
2012,03,13,16,02,9.80
2012,03,13,16,03,12.90
2012,03,13,16,04,12.00
2012,03,13,16,05,11.30
2012,03,13,16,06,8.70
2012,03,13,16,07,10.60
2012,03,13,16,08,11.80
2012,03,13,16,09,16.10
2012,03,13,16,10,9.10
2012,03,13,16,11,10.80
2012,03,13,16,12,9.60
2012,03,13,16,13,9.70
2012,03,13,16,14,18.50
2012,03,13,16,15,16.50
2012,03,13,16,16,7.30
2012,03,13,16,17,7.00
2012,03,13,16,18,5.70
2012,03,13,16,19,7.60
2012,03,13,16,20,9.00
2012,03,13,16,21,7.80
2012,03,13,16,22,8.70
2012,03,13,16,23,6.60
2012,03,13,16,24,4.40
2012,03,13,16,25,6.90
2012,03,13,16,26,4.70
2012,03,13,16,27,9.40
2012,03,13,16,28,9.50
2012,03,13,16,29,9.90
2012,03,13,16,30,11.90
2012,03,13,16,31,4.40
2012,03,13,16,32,7.60
2012,03,13,16,33,7.70
2012,03,13,16,34,7.50
2012,03,13,16,35,7.20
2012,03,13,16,36,14.30
2012,03,13,16,37,10.90
2012,03,13,16,38,12.30
2012,03,13,16,39,7.20
2012,03,13,16,40,9.20
2012,03,13,16,41,7.40
2012,03,13,16,42,11.70
2012,03,13,16,43,3.80
2012,03,13,16,44,2.50
2012,03,13,16,45,5.10
2012,03,13,16,46,11.60
2012,03,13,16,47,8.70
2012,03,13,16,48,5.40
2012,03,13,16,49,9.40
2012,03,13,16,50,12.00
2012,03,13,16,51,8.10
2012,03,13,16,52,6.10
2012,03,13,16,53,3.40
2012,03,13,16,54,9.60
2012,03,13,16,55,3.60
2012,03,13,16,56,7.40
2012,03,13,16,57,15.00
2012,03,13,16,58,6.80
2012,03,13,16,59,0.90
2012,03,13,17,00,2.00
2012,03,13,17,01,7.10
2012,03,13,17,02,5.50
2012,03,13,17,03,10.30
2012,03,13,17,04,1.40
2012,03,13,17,05,2.70
2012,03,13,17,06,3.60
2012,03,13,17,07,1.80
2012,03,13,17,08,1.30
2012,03,13,17,09,12.10
2012,03,13,17,10,4.10
2012,03,13,17,11,7.60
2012,03,13,17,12,7.00
2012,03,13,17,13,8.30
2012,03,13,17,14,3.90
2012,03,13,17,15,11.80
2012,03,13,17,16,13.00
2012,03,13,17,17,2.80
2012,03,13,17,18,7.40
2012,03,13,17,19,3.20
2012,03,13,17,20,4.00
2012,03,13,17,21,3.10
2012,03,13,17,22,5.30
2012,03,13,17,23,4.50
2012,03,13,17,24,4.80
2012,03,13,17,25,4.80
2012,03,13,17,26,6.80
2012,03,13,17,27,6.00
2012,03,13,17,28,2.60
2012,03,13,17,29,5.90
2012,03,13,17,30,2.90
2012,03,13,17,31,1.10
2012,03,13,17,32,4.30
2012,03,13,17,33,6.30
2012,03,13,17,34,7.30
2012,03,13,17,35,1.50
2012,03,13,17,36,10.20
2012,03,13,17,37,6.20
2012,03,13,17,38,3.70
2012,03,13,17,39,7.90
2012,03,13,17,40,8.30
2012,03,13,17,41,5.90
2012,03,13,17,42,12.20
2012,03,13,17,43,9.70
2012,03,13,17,44,8.80
2012,03,13,17,45,4.80
2012,03,13,17,46,2.30
2012,03,13,17,47,4.60
2012,03,13,17,48,11.60
2012,03,13,17,49,7.20
2012,03,13,17,50,5.10
2012,03,13,17,51,3.40
2012,03,13,17,52,5.30
2012,03,13,17,53,14.00
2012,03,13,17,54,8.60
2012,03,13,17,55,5.10
2012,03,13,17,56,3.20
2012,03,13,17,57,8.60
2012,03,13,17,58,13.90
2012,03,13,17,59,8.90
2012,03,13,18,00,11.60
2012,03,13,18,01,11.00
2012,03,13,18,02,7.70